Content
SEND FEEDBACK

Daily
Averages
Monthly
Summary
United States of America

BERKELEY, MISSOURI


Home > North America > United States > Missouri
Elevation: 564 feet     Latitude: 38 45N     Longitude: 090 22W

WEATHER
 
SELECT A DAY
Number of Records: 208,405;   Date Range: 1/1/95 - 12/23/14
 
SHARE

PRINT THIS DATA

[ ← Previous Day ]
WEATHER ALMANAC - APRIL 6, 2013
[ Next Day → ]
[ °C ]   °F
Weather ElementAverageHighLow
Temperature65.1 °F73.9 °F (1:51 pm)54 °F (6:51 am)
Dewpoint35.2 °F41 °F (11:51 pm)30.9 °F (12:51 pm)
Humidity34.4 %49 % (6:51 am)21 % (12:51 pm)
Barometer29.86 in30.02 in (1:51 am)29.70 in (5:51 pm)
Wind Speed15 mph23 mph (1:51 pm)
Wind Gust35.7 mph (1:51 pm)
Weather ElementAverage
Visibility10 mi
Wind DirectionSSE (173.9 °)

Weather ElementTotal
Precipitation---
Heating Degree Days1.1 (Base 65)
Growing Degree Days14 (Base 50)
Averaged from 23 records on April 6, 2013
WEATHER CONDITIONS BREAKOUT
WIND DIRECTION BREAKOUT
WEATHER BY HOUR - APRIL 6, 2013
[ °C ]   °F
Local TimeTemperatureDewpointHumidityBarometerVisibilityWind DirectionWind SpeedGust SpeedPrecipitationEventsConditions
1:51 AM55.9 °F33.1 °F42 %30.02 in10.0 miSE (140°)15.0 mphOvercast
2:51 AM55.9 °F34.0 °F44 %30.01 in10.0 miSE (140°)16.1 mph21.9 mphMostly Cloudy
3:51 AM55.0 °F34.0 °F45 %29.99 in10.0 miSE (140°)10.4 mphMostly Cloudy
4:51 AM55.0 °F35.1 °F47 %29.98 in10.0 miSSE (150°)11.5 mphMostly Cloudy
5:51 AM55.0 °F35.1 °F47 %29.98 in10.0 miSSE (150°)11.5 mphMostly Cloudy
6:51 AM54.0 °F35.1 °F49 %29.98 in10.0 miSSE (150°)10.4 mphMostly Cloudy
7:51 AM57.0 °F36.0 °F45 %29.98 in10.0 miSSE (160°)8.1 mphMostly Cloudy
8:51 AM59.0 °F35.1 °F41 %29.98 in10.0 miSSE (160°)13.8 mphMostly Cloudy
9:51 AM62.1 °F35.1 °F37 %29.94 in10.0 miSSE (160°)17.3 mphMostly Cloudy
10:51 AM66.9 °F36.0 °F32 %29.92 in10.0 miSouth (170°)19.6 mph26.5 mphMostly Cloudy
11:51 AM71.1 °F33.1 °F25 %29.89 in10.0 miSouth (190°)16.1 mph28.8 mphMostly Cloudy
12:51 PM73.0 °F30.9 °F21 %29.85 in10.0 miSouth (190°)21.9 mph31.1 mphMostly Cloudy
1:51 PM73.9 °F32.0 °F21 %29.81 in10.0 miSouth (180°)23.0 mph35.7 mphMostly Cloudy
2:51 PM73.0 °F32.0 °F22 %29.77 in10.0 miSSW (200°)17.3 mph27.6 mphMostly Cloudy
3:51 PM73.9 °F32.0 °F21 %29.75 in10.0 miSSW (200°)17.3 mph29.9 mphMostly Cloudy
4:51 PM73.9 °F33.1 °F22 %29.74 in10.0 miSouth (190°)16.1 mph23.0 mphMostly Cloudy
5:51 PM73.0 °F35.1 °F25 %29.70 in10.0 miSouth (170°)19.6 mph24.2 mphMostly Cloudy
6:51 PM72.0 °F36.0 °F27 %29.73 in10.0 miSouth (180°)13.8 mphMostly Cloudy
7:51 PM70.0 °F37.9 °F31 %29.74 in10.0 miSouth (190°)15.0 mph20.7 mphScattered Clouds
8:51 PM69.1 °F39.0 °F33 %29.76 in10.0 miSouth (190°)9.2 mphMostly Cloudy
9:51 PM66.9 °F39.9 °F37 %29.77 in10.0 miSSW (200°)11.5 mph20.7 mphPartly Cloudy
10:51 PM66.0 °F39.9 °F38 %29.77 in10.0 miSSW (200°)13.8 mphPartly Cloudy
11:51 PM66.0 °F41.0 °F40 %29.77 in10.0 miSSW (200°)17.3 mph26.5 mphMostly Cloudy
Hourly data recorded from KSTL, located miles away from Berkeley, Missouri







STORIES FROM OUR PARTNERS